• In Uzbekistan
  • List of Countries
  • For 7 days
  • Water Temperature
  • Satellite Maps
  • Weather Map
  • Weather Widgets
  • user-avatar
    Login

    Hourly Weather Nebitdag

    Today, 17 October, Wednesday

    Time Temperature Precipitation Wind Pressure Humidity
    00:00 +13°C° 0 mm 5 mps 773 mmHg 19%
    01:00 +13°C° 0 mm 5 mps 773 mmHg 19%
    02:00 +12°C° 0 mm 5 mps 773 mmHg 20%
    03:00 +12°C° 0 mm 5 mps 773 mmHg 21%
    04:00 +10°C° 0 mm 5 mps 773 mmHg 23%
    05:00 +10°C° 0 mm 5 mps 773 mmHg 23%
    06:00 +10°C° 0 mm 5 mps 773 mmHg 24%
    07:00 +10°C° 0 mm 5 mps 773 mmHg 24%
    08:00 +12°C° 0 mm 5 mps 773 mmHg 22%
    09:00 +13°C° 0 mm 5 mps 773 mmHg 21%
    10:00 +15°C° 0 mm 6 mps 773 mmHg 18%
    11:00 +16°C° 0 mm 6 mps 772 mmHg 18%
    12:00 +17°C° 0 mm 5 mps 772 mmHg 17%
    13:00 +19°C° 0 mm 5 mps 771 mmHg 17%
    14:00 +19°C° 0 mm 5 mps 771 mmHg 17%
    15:00 +19°C° 0 mm 5 mps 771 mmHg 17%
    16:00 +19°C° 0 mm 5 mps 770 mmHg 17%
    17:00 +17°C° 0 mm 5 mps 770 mmHg 18%
    18:00 +17°C° 0 mm 5 mps 770 mmHg 19%
    19:00 +16°C° 0 mm 5 mps 770 mmHg 21%
    20:00 +15°C° 0 mm 5 mps 770 mmHg 21%
    21:00 +15°C° 0 mm 5 mps 770 mmHg 22%
    22:00 +14°C° 0 mm 4 mps 770 mmHg 23%
    23:00 +14°C° 0 mm 4 mps 770 mmHg 24%

    Tomorrow, 18 October, Thursday

    Time Temperature Precipitation Wind Pressure Humidity
    00:00 +14°C° 0 mm 4 mps 769 mmHg 24%
    01:00 +13°C° 0 mm 4 mps 769 mmHg 25%
    02:00 +13°C° 0 mm 4 mps 769 mmHg 25%
    03:00 +13°C° 0 mm 3 mps 769 mmHg 25%
    04:00 +12°C° 0 mm 3 mps 769 mmHg 26%
    05:00 +12°C° 0 mm 3 mps 769 mmHg 26%
    06:00 +12°C° 0 mm 3 mps 769 mmHg 26%
    07:00 +12°C° 0 mm 3 mps 769 mmHg 27%
    08:00 +13°C° 0 mm 3 mps 769 mmHg 25%
    09:00 +16°C° 0 mm 2 mps 769 mmHg 22%
    10:00 +17°C° 0 mm 2 mps 769 mmHg 20%
    11:00 +18°C° 0 mm 2 mps 769 mmHg 20%
    12:00 +19°C° 0 mm 2 mps 768 mmHg 19%
    13:00 +21°C° 0 mm 1 mps 768 mmHg 19%
    14:00 +20°C° 0 mm 2 mps 768 mmHg 19%
    15:00 +21°C° 0 mm 2 mps 768 mmHg 19%
    16:00 +21°C° 0 mm 2 mps 768 mmHg 19%
    17:00 +21°C° 0 mm 2 mps 768 mmHg 21%
    18:00 +20°C° 0 mm 2 mps 768 mmHg 23%
    19:00 +19°C° 0 mm 2 mps 768 mmHg 25%
    20:00 +19°C° 0 mm 2 mps 768 mmHg 26%
    21:00 +18°C° 0 mm 2 mps 768 mmHg 28%
    22:00 +18°C° 0 mm 2 mps 768 mmHg 30%
    23:00 +17°C° 0 mm 2 mps 768 mmHg 30%

    Day after tomorrow, 19 October, Friday

    Time Temperature Precipitation Wind Pressure Humidity
    00:00 +17°C° 0 mm 2 mps 768 mmHg 29%
    01:00 +16°C° 0 mm 2 mps 768 mmHg 29%
    02:00 +16°C° 0 mm 2 mps 768 mmHg 29%
    03:00 +16°C° 0 mm 3 mps 768 mmHg 29%
    04:00 +14°C° 0 mm 3 mps 768 mmHg 29%
    05:00 +14°C° 0 mm 3 mps 768 mmHg 29%
    06:00 +14°C° 0 mm 3 mps 768 mmHg 30%
    07:00 +14°C° 0 mm 3 mps 768 mmHg 30%
    08:00 +16°C° 0 mm 3 mps 768 mmHg 28%
    09:00 +18°C° 0 mm 3 mps 768 mmHg 25%
    10:00 +19°C° 0 mm 4 mps 769 mmHg 23%
    11:00 +20°C° 0 mm 3 mps 768 mmHg 22%
    12:00 +21°C° 0 mm 3 mps 768 mmHg 21%
    13:00 +23°C° 0 mm 2 mps 768 mmHg 20%
    14:00 +24°C° 0 mm 2 mps 768 mmHg 20%
    15:00 +24°C° 0 mm 2 mps 767 mmHg 20%
    16:00 +24°C° 0 mm 2 mps 767 mmHg 20%
    17:00 +22°C° 0 mm 3 mps 767 mmHg 21%
    18:00 +22°C° 0 mm 3 mps 767 mmHg 23%
    19:00 +21°C° 0 mm 4 mps 767 mmHg 24%
    20:00 +20°C° 0 mm 4 mps 767 mmHg 25%
    21:00 +19°C° 0 mm 4 mps 767 mmHg 26%
    22:00 +19°C° 0 mm 5 mps 767 mmHg 27%
    23:00 +17°C° 0 mm 5 mps 767 mmHg 27%

    20 October, Saturday

    Time Temperature Precipitation Wind Pressure Humidity
    00:00 +17°C° 0 mm 5 mps 767 mmHg 28%
    01:00 +16°C° 0 mm 5 mps 766 mmHg 28%
    02:00 +16°C° 0 mm 5 mps 766 mmHg 29%
    03:00 +16°C° 0 mm 5 mps 766 mmHg 29%
    04:00 +16°C° 0 mm 5 mps 766 mmHg 30%
    05:00 +15°C° 0 mm 5 mps 766 mmHg 30%
    06:00 +15°C° 0 mm 5 mps 766 mmHg 30%
    07:00 +15°C° 0 mm 5 mps 766 mmHg 31%
    08:00 +16°C° 0 mm 5 mps 766 mmHg 29%
    09:00 +19°C° 0 mm 5 mps 766 mmHg 26%
    10:00 +21°C° 0 mm 5 mps 766 mmHg 24%
    11:00 +22°C° 0 mm 5 mps 766 mmHg 23%
    12:00 +23°C° 0 mm 4 mps 765 mmHg 22%
    13:00 +26°C° 0 mm 4 mps 765 mmHg 21%
    14:00 +26°C° 0 mm 4 mps 764 mmHg 20%
    15:00 +26°C° 0 mm 4 mps 764 mmHg 19%
    16:00 +27°C° 0 mm 3 mps 764 mmHg 18%
    17:00 +26°C° 0 mm 4 mps 764 mmHg 20%
    18:00 +23°C° 0 mm 4 mps 764 mmHg 21%
    19:00 +22°C° 0 mm 4 mps 764 mmHg 22%
    20:00 +22°C° 0 mm 4 mps 764 mmHg 23%
    21:00 +21°C° 0 mm 4 mps 764 mmHg 23%
    22:00 +20°C° 0 mm 4 mps 763 mmHg 24%
    23:00 +20°C° 0 mm 4 mps 763 mmHg 24%

    21 October, Sunday

    Time Temperature Precipitation Wind Pressure Humidity
    00:00 +19°C° 0 mm 4 mps 763 mmHg 25%
    01:00 +19°C° 0 mm 4 mps 762 mmHg 25%
    02:00 +19°C° 0 mm 3 mps 762 mmHg 25%
    03:00 +18°C° 0 mm 3 mps 762 mmHg 26%
    04:00 +18°C° 0 mm 3 mps 762 mmHg 26%
    05:00 +18°C° 0 mm 3 mps 762 mmHg 26%
    06:00 +17°C° 0 mm 3 mps 762 mmHg 26%
    07:00 +17°C° 0 mm 3 mps 762 mmHg 26%
    08:00 +19°C° 0 mm 3 mps 762 mmHg 23%
    09:00 +21°C° 0 mm 3 mps 762 mmHg 20%
    10:00 +24°C° 0 mm 3 mps 762 mmHg 17%
    11:00 +25°C° 0 mm 3 mps 762 mmHg 16%
    12:00 +27°C° 0 mm 2 mps 762 mmHg 15%
    13:00 +28°C° 0 mm 2 mps 762 mmHg 14%
    14:00 +28°C° 0 mm 1 mps 761 mmHg 13%
    15:00 +28°C° 0 mm 1 mps 761 mmHg 13%
    16:00 +29°C° 0 mm 1 mps 761 mmHg 13%
    17:00 +28°C° 0 mm 1 mps 761 mmHg 14%
    18:00 +27°C° 0 mm 2 mps 761 mmHg 16%
    19:00 +26°C° 0 mm 2 mps 761 mmHg 17%
    20:00 +25°C° 0 mm 3 mps 761 mmHg 17%
    21:00 +25°C° 0 mm 3 mps 761 mmHg 18%
    22:00 +24°C° 0 mm 3 mps 761 mmHg 19%
    23:00 +24°C° 0 mm 3 mps 761 mmHg 20%

    22 October, Monday

    Time Temperature Precipitation Wind Pressure Humidity
    00:00 +22°C° 0 mm 3 mps 761 mmHg 21%
    01:00 +22°C° 0 mm 3 mps 760 mmHg 21%
    02:00 +22°C° 0 mm 3 mps 760 mmHg 22%
    03:00 +21°C° 0 mm 2 mps 760 mmHg 23%
    04:00 +21°C° 0 mm 2 mps 760 mmHg 23%
    05:00 +21°C° 0 mm 2 mps 760 mmHg 24%
    06:00 +21°C° 0 mm 2 mps 761 mmHg 24%
    07:00 +21°C° 0 mm 3 mps 761 mmHg 24%
    08:00 +22°C° 0 mm 3 mps 761 mmHg 22%
    09:00 +25°C° 0 mm 3 mps 761 mmHg 20%
    10:00 +27°C° 0 mm 3 mps 761 mmHg 18%
    11:00 +28°C° 0.1 mm 2 mps 761 mmHg 18%
    12:00 +29°C° 0.1 mm 2 mps 761 mmHg 18%
    13:00 +30°C° 0.1 mm 1 mps 761 mmHg 18%
    14:00 +30°C° 0 mm 1 mps 761 mmHg 18%
    15:00 +30°C° 0 mm 1 mps 761 mmHg 18%
    16:00 +30°C° 0 mm 1 mps 760 mmHg 18%
    17:00 +29°C° 0 mm 2 mps 761 mmHg 20%
    18:00 +28°C° 0 mm 2 mps 761 mmHg 22%
    19:00 +27°C° 0 mm 2 mps 761 mmHg 23%
    20:00 +27°C° 0 mm 3 mps 761 mmHg 24%
    21:00 +26°C° 0 mm 3 mps 762 mmHg 25%
    22:00 +26°C° 0 mm 3 mps 762 mmHg 25%
    23:00 +25°C° 0 mm 3 mps 762 mmHg 26%
    Show more